Regional Weather Roundup
Issued by NWS

Home | Current Version | Previous Version | Text Only | Print | Product List | Glossary On
Versions: 1 2 3 4 5 6 7 8 9 10 11 12 13 14 15 16 17 18 19 20 21 22 23 24 25 26 27 28 29 30 31 32 33 34 35 36 37 38 39 40 41 42 43 44 45 46 47 48 49 50
000
ASUS44 KBMX 050910
RWRAL

ALABAMA REGIONAL WEATHER ROUNDUP
NATIONAL WEATHER SERVICE BIRMINGHAM AL
400 AM CDT SUN JUL 05 2015

NOTE: "FAIR" INDICATES FEW OR NO CLOUDS BELOW 12,000 FEET
WITH NO SIGNIFICANT WEATHER AND/OR OBSTRUCTIONS TO VISIBILITY.

THE REMARK "TC" DENOTES TEMPERATURE IN DEGREES CELSIUS.

ALZ001>011-014-016>018-020-051000-
NORTH ALABAMA

CITY           SKY/WX    TMP DP  RH WIND       PRES   REMARKS
MUSCLE SHOALS  CLOUDY    68  66  93 SE3       30.06R
HUNTSVILLE     CLOUDY    70  67  90 SW6       30.06R
DECATUR        CLOUDY    69  67  93 MISG      30.07R
HALEYVILLE     MOCLDY    67  67 100 SW7       30.10R
GADSDEN        CLOUDY    79  64  61 SW5       30.07S
$$

ALZ012-013-022-023-030>036-040>044-051000-
WEST CENTRAL ALABAMA

CITY           SKY/WX    TMP DP  RH WIND       PRES   REMARKS
TUSCALOOSA     CLOUDY    72  69  90 CALM      30.09S
$$

ALZ015-024>027-033>036-040>044-051000-
CENTRAL ALABAMA

CITY           SKY/WX    TMP DP  RH WIND       PRES   REMARKS
BIRMINGHAM     MOCLDY    70  68  93 SW7       30.11S
MONTGOMERY     MOCLDY    71  68  90 CALM      30.10R
SHELBY CO ARPT CLOUDY    70  69  97 W6        30.11R
MAXWELL AFB    CLOUDY    70  69  96 SW2       30.10R
GREENVILLE     LGT RAIN  70  68  93 CALM      30.10R
$$

ALZ019-021-028-029-037-038-045>048-051000-
EAST CENTRAL ALABAMA

CITY           SKY/WX    TMP DP  RH WIND       PRES   REMARKS
ANNISTON       MOCLDY    70  67  90 SW6       30.09S
ALEXANDER CITY CLOUDY    69  66  90 SW3       30.11R
AUBURN         PTCLDY    68  64  88 SW6       30.12R
$$

ALZ051>064-051000-
SOUTHWEST ALABAMA

CITY           SKY/WX    TMP DP  RH WIND       PRES   REMARKS
MOBILE         CLOUDY    75  73  93 SE5       30.09S
BROOKLEY FIELD CLOUDY    77  74  90 SE6       30.09S
EVERGREEN      MOCLDY    70  69  97 CALM      30.11R
$$

ALZ049-050-065>069-051000-
SOUTHEAST ALABAMA

CITY           SKY/WX    TMP DP  RH WIND       PRES   REMARKS
DOTHAN         CLOUDY    70  69  97 CALM        N/A
OZARK          MOCLDY    70  69  98 SE2       30.10S
TROY           MOCLDY    70  69  97 CALM      30.11S
EUFAULA        FAIR      70  69  97 CALM      30.09S
$$



USA.gov is the U.S. government's official web portal to all federal, state and local government web resources and services.